Vorticity
3 5 9 10 10 11 10 9 9 10 8 6 9 11 9 12 13 11 8 8 13 15 13 15 16 14 18 19 11 5 5 11 16 11 6 7 5 2 4 4 3 14 24 16 9 14 13 9 12 8 3 8 11 6 9 16 10 7 25 30 10 8 26 29 20 13 10 14 20 19 13 10 8 5 12 24 19 8 2 -5 -4 3 0 14 46 49 30
5 6 9 9 9 10 10 9 8 9 9 7 9 10 10 13 13 9 6 8 14 17 16 18 19 15 16 18 14 8 3 5 13 15 9 6 6 4 3 6 6 6 13 16 13 13 14 10 7 6 5 5 11 11 7 17 16 -2 9 32 12 -6 20 43 36 18 6 9 22 26 14 5 7 8 12 25 21 6 3 -6 -11 9 12 2 24 44 40
7 8 10 8 8 10 10 9 8 7 9 9 10 10 11 14 13 6 4 5 10 16 16 17 18 19 19 18 16 12 4 1 8 15 16 12 5 3 4 3 4 6 9 13 14 12 14 16 7 2 6 6 4 6 7 16 20 3 2 21 12 1 21 40 40 24 2 -0 21 33 21 8 7 10 12 23 22 1 -4 2 -4 7 15 -2 9 30 14
9 11 11 7 7 10 10 10 9 8 9 11 10 9 11 16 12 3 2 4 7 13 15 14 14 17 21 23 21 15 6 4 8 10 14 17 10 5 5 -1 -3 6 10 7 12 18 16 15 12 6 7 7 2 5 11 13 11 1 3 22 24 16 24 32 34 26 4 1 22 29 23 16 11 14 16 16 15 -2 -11 6 9 4 8 1 2 20 6
10 11 10 7 7 9 9 11 11 9 9 11 11 9 11 16 11 3 2 2 4 9 12 12 12 11 15 21 23 20 12 9 11 6 6 14 16 13 11 1 -7 3 11 3 5 21 22 13 13 13 9 9 7 6 11 15 13 -1 -6 20 34 20 15 24 28 26 15 13 26 28 22 19 12 17 21 9 9 3 -11 3 17 11 17 20 7 7 8
8 11 10 7 7 8 8 10 11 10 11 12 11 10 11 14 11 4 2 2 4 7 10 12 13 10 11 15 20 23 19 14 12 5 1 6 11 13 16 11 3 5 12 6 1 17 28 18 10 11 11 12 11 7 9 15 18 6 -8 11 32 20 13 24 23 19 19 17 23 24 17 13 13 18 19 12 11 2 -13 -0 17 17 25 28 10 3 7
7 11 10 6 6 9 8 9 9 9 11 13 11 11 13 14 11 4 1 4 5 5 8 11 13 13 11 11 16 21 23 21 15 5 2 5 6 9 12 14 14 11 7 6 6 13 22 19 11 9 10 11 10 7 7 10 12 7 -3 6 25 21 16 20 12 8 17 18 20 25 17 11 16 16 15 18 14 -2 -10 3 12 15 30 26 2 1 8
8 12 10 5 7 10 9 9 8 8 12 14 11 11 14 14 10 5 2 4 6 5 6 9 12 14 12 10 12 15 20 22 16 7 8 8 4 6 8 10 17 16 4 2 7 11 18 21 16 12 11 12 13 11 9 8 7 4 -1 2 15 21 18 17 12 8 10 9 13 19 17 20 25 16 11 17 16 2 -6 1 10 13 20 22 5 1 14
9 12 8 5 7 11 11 9 8 10 13 13 10 10 13 13 10 7 2 3 6 6 5 8 13 14 12 12 14 13 17 23 19 13 11 10 6 4 6 8 15 17 9 4 9 15 22 24 17 16 17 10 7 13 15 13 8 6 6 6 13 22 21 16 15 11 3 3 12 16 18 35 40 24 16 18 14 6 -3 -3 9 5 -1 22 32 16 17
10 12 9 5 5 9 11 9 8 12 14 11 9 10 12 13 10 5 1 3 7 6 5 8 13 14 11 11 12 13 15 20 24 21 11 7 9 7 6 7 10 15 13 9 14 18 19 22 17 14 18 13 5 9 16 15 11 10 9 5 7 18 24 22 20 13 3 7 22 27 22 24 24 15 18 20 5 -2 1 6 12 1 -3 26 37 14 13
10 11 10 6 3 6 10 9 8 12 14 11 10 10 11 11 8 2 -0 4 9 6 4 9 15 16 13 11 12 15 13 11 20 26 15 7 10 11 9 6 6 13 14 10 15 17 13 20 22 13 12 17 14 11 11 10 10 13 12 4 3 11 21 30 29 17 11 14 21 26 21 8 1 4 15 18 5 -1 6 11 8 -1 -0 15 14 2 10
8 11 11 7 2 5 9 10 9 11 13 12 10 9 11 11 7 3 -1 4 10 6 2 9 15 15 15 14 13 16 16 11 15 23 19 12 11 12 11 7 5 11 13 8 12 16 11 11 19 18 12 12 15 16 15 11 9 13 15 9 8 10 12 23 27 15 15 22 14 12 21 18 9 5 6 6 4 4 5 4 1 -2 0 4 1 3 7
6 10 13 6 0 4 10 11 10 10 12 13 10 8 10 10 8 5 0 2 9 6 2 8 14 12 13 14 11 12 15 14 16 22 19 12 10 11 13 11 6 6 11 12 11 16 16 7 8 18 16 9 12 16 16 13 8 10 15 12 12 12 7 15 24 17 17 28 20 9 16 23 19 11 6 4 3 1 -1 -2 0 4 6 2 -5 0 6
5 8 14 6 -3 3 11 13 11 10 11 13 11 8 9 9 7 6 3 2 7 7 3 8 13 10 10 13 15 17 15 9 10 19 19 12 9 11 12 12 9 5 8 13 11 12 18 15 10 15 15 11 12 12 12 13 9 8 14 16 15 14 11 15 21 22 24 27 24 20 15 11 13 16 16 15 14 11 1 -5 1 10 10 -0 -9 0 8
4 7 13 6 -2 3 13 15 12 10 9 12 13 10 8 8 6 5 5 4 5 6 4 7 11 9 8 11 15 21 20 10 7 14 18 15 12 11 8 8 11 9 5 8 11 9 11 17 15 11 13 16 15 12 13 15 13 13 15 16 16 12 11 15 16 22 26 11 2 22 31 15 5 8 9 8 14 18 6 -8 -1 13 12 -3 -13 -2 10
7 10 13 7 1 5 14 16 13 11 8 10 14 12 8 8 6 5 6 5 4 5 5 8 10 8 8 10 11 17 21 16 12 15 17 15 11 9 8 9 12 11 5 6 10 6 6 18 24 15 11 14 14 14 14 10 12 18 13 12 15 9 10 19 14 12 17 3 -3 29 48 30 11 8 7 1 4 16 15 1 0 9 9 1 -6 -2 5
11 13 12 8 2 3 12 17 15 12 8 8 13 13 9 7 6 6 8 6 3 3 6 9 9 6 7 10 10 14 19 18 15 17 20 19 15 11 10 10 10 10 8 8 9 7 9 20 26 17 9 10 13 14 15 12 15 18 10 6 11 8 11 20 14 7 12 9 13 33 44 34 19 13 11 4 -2 7 15 10 7 5 -2 -6 -3 4 6
14 12 10 7 1 1 12 19 16 12 9 8 11 12 10 7 6 6 7 7 4 3 6 10 8 5 5 7 8 13 19 18 14 15 18 19 19 17 12 10 9 10 13 13 10 11 14 17 18 14 9 10 13 10 12 16 18 14 7 6 8 6 6 9 10 12 15 17 19 23 31 41 34 16 14 14 4 2 7 8 11 12 4 -2 -4 -4 -2
12 11 9 6 -0 3 14 21 16 11 10 9 9 10 10 9 7 7 6 7 5 1 5 11 8 5 5 7 8 11 16 17 13 14 18 16 16 18 15 12 11 10 10 12 10 11 14 13 14 13 8 8 11 9 8 14 17 12 8 7 8 7 6 7 11 15 17 20 19 8 17 47 50 21 12 18 11 5 7 8 8 8 9 11 5 -5 -9
10 10 9 4 0 7 18 21 14 9 10 11 9 8 10 9 9 9 7 8 6 2 5 10 9 7 5 5 8 11 13 14 14 16 20 18 16 17 14 10 11 9 8 9 9 10 11 8 10 16 14 11 13 10 7 10 12 11 10 9 7 7 10 11 14 18 13 7 5 -2 5 36 54 37 20 22 22 15 7 7 9 4 3 10 9 2 2
10 10 9 3 1 11 19 18 12 8 9 12 11 8 8 9 10 8 5 6 8 5 5 7 8 10 8 2 2 7 11 14 14 14 16 17 18 20 16 11 9 10 12 12 8 10 11 6 8 18 20 16 14 10 7 10 10 8 11 11 4 6 13 11 9 15 11 0 3 7 1 13 42 53 36 23 28 31 20 11 11 5 1 7 10 7 8
9 10 11 4 3 14 18 13 10 10 8 11 12 9 8 9 8 3 1 5 9 8 5 4 7 13 11 3 0 4 10 15 14 12 13 15 17 20 20 16 10 9 14 14 7 8 13 9 10 18 18 12 11 9 7 7 7 7 10 8 4 9 14 8 2 3 1 1 8 9 5 13 32 45 40 23 17 26 31 27 22 15 7 6 6 6 7
8 10 11 5 6 15 15 9 11 12 8 8 11 10 10 10 5 2 5 9 11 10 2 -1 9 18 13 5 1 1 8 16 14 11 13 14 14 18 19 16 12 9 13 15 7 4 10 11 11 16 15 7 6 11 13 10 8 9 8 4 6 12 10 7 7 3 -1 7 8 -0 10 24 13 11 34 40 19 10 17 25 29 29 24 19 12 8 8
10 12 11 7 8 13 11 9 13 13 7 5 9 12 11 8 5 6 10 10 12 14 3 -5 9 22 14 5 3 -1 6 17 15 11 14 13 12 16 18 15 12 8 10 15 11 5 8 12 11 12 16 11 3 5 14 15 10 9 11 8 5 5 5 11 14 7 7 15 5 -6 11 23 6 2 28 39 28 20 14 12 18 21 22 28 27 24 26
12 13 10 7 8 11 10 11 14 12 5 3 8 13 10 6 4 8 9 3 3 12 10 1 9 20 14 6 4 -1 4 16 16 12 14 12 9 14 18 17 15 10 7 14 15 7 6 11 10 10 14 14 4 -1 7 15 10 3 6 12 10 6 10 18 13 5 11 13 0 2 22 22 9 15 23 21 30 37 22 13 19 18 15 18 17 16 23
13 12 9 8 9 9 11 14 15 11 4 3 9 13 9 5 4 5 7 -0 -5 8 20 14 10 14 14 9 5 1 5 16 18 14 13 12 10 12 14 17 19 14 7 9 13 11 7 7 9 11 12 9 2 -2 5 14 13 3 -1 8 16 12 12 17 12 8 14 12 -0 10 24 9 -3 12 21 20 29 31 15 9 17 23 27 28 22 19 19
9 7 7 7 7 7 13 17 14 9 5 5 10 12 7 4 4 5 8 2 -6 6 25 21 9 9 11 7 5 5 9 16 18 14 11 13 13 11 11 15 20 18 12 7 9 12 10 5 4 9 12 10 6 5 8 11 13 10 4 7 15 13 10 14 14 9 13 15 10 12 13 1 -2 12 19 18 23 24 16 7 3 13 28 28 20 21 19
5 7 8 6 5 10 18 17 10 7 6 7 11 12 6 5 7 8 8 2 -6 4 22 21 10 9 10 5 5 10 14 15 16 14 11 12 13 12 11 12 16 19 16 10 7 9 11 8 5 4 6 9 9 9 9 8 7 7 4 4 11 13 11 13 13 8 11 19 19 15 8 -1 0 11 16 16 18 21 22 13 3 11 29 25 12 14 17
8 9 8 4 6 14 19 15 9 8 7 8 12 10 4 5 8 7 5 2 -2 5 18 19 11 9 10 9 11 15 17 16 15 14 12 10 12 14 13 12 14 16 17 14 9 8 9 9 10 7 4 5 6 6 6 7 7 6 5 6 9 9 6 7 6 4 12 20 16 10 6 -0 -1 9 20 21 16 13 18 15 5 10 26 25 13 12 15
7 5 3 4 10 17 18 12 9 7 6 8 12 8 3 3 5 4 5 4 1 5 15 18 13 9 10 14 16 16 16 15 15 14 11 9 12 15 14 13 14 15 17 16 12 9 8 9 10 11 9 6 5 5 5 6 7 7 6 7 6 3 3 8 6 2 10 20 15 7 6 5 4 9 17 19 14 12 18 18 7 9 24 22 10 14 28
2 1 4 10 15 16 14 10 8 7 7 9 11 9 4 3 4 6 8 7 5 8 13 15 14 12 12 16 19 17 13 13 14 14 11 9 12 13 12 14 16 15 16 18 15 11 9 8 8 9 11 11 9 6 4 3 6 9 9 8 8 6 5 8 9 6 10 17 16 8 4 5 8 10 13 15 12 11 18 21 13 10 19 21 16 13 13
2 3 9 15 16 13 10 9 8 8 8 9 9 8 6 5 7 10 11 7 8 11 11 10 13 13 12 16 20 17 13 14 16 14 11 9 10 13 14 15 17 17 16 18 18 15 11 9 8 9 10 11 10 7 6 6 6 8 10 8 6 7 8 8 7 8 10 14 16 14 8 4 5 8 11 13 10 8 13 19 18 12 8 10 16 14 3
6 10 14 16 14 10 8 8 8 7 7 9 9 8 7 9 11 12 10 7 9 11 10 9 13 14 13 15 19 17 14 15 16 14 11 9 10 13 15 14 14 15 15 14 16 16 13 9 9 10 9 10 10 10 10 10 9 11 17 19 14 9 9 11 12 10 8 7 10 16 16 9 6 9 13 14 13 11 11 12 16 18 12 4 5 10 11
11 14 14 11 9 9 9 9 9 7 7 9 9 8 9 12 13 11 10 9 10 10 9 9 12 15 14 14 16 17 17 16 14 12 11 10 10 12 14 14 12 12 15 16 15 15 15 12 9 10 12 12 12 11 10 13 16 14 10 15 20 16 8 7 10 12 9 3 1 8 15 14 9 9 13 14 11 9 9 8 9 14 18 14 9 8 10
10 11 11 9 6 9 12 11 8 8 9 11 10 9 11 14 13 12 12 11 9 8 8 9 11 15 16 16 16 17 18 16 14 13 10 9 10 13 14 15 14 15 16 17 13 12 14 13 10 9 7 5 8 12 10 10 16 10 -7 -10 5 14 9 4 5 6 7 6 4 4 7 10 9 7 9 13 13 9 6 3 1 3 10 14 14 13 14
10 11 10 7 7 10 12 10 7 9 12 12 9 10 13 14 13 12 10 8 8 7 7 10 13 14 15 18 18 17 16 16 16 13 9 8 12 14 14 14 15 16 16 14 14 15 14 10 9 9 7 4 9 14 9 1 6 16 15 9 10 13 9 5 4 5 7 9 10 9 7 8 10 10 8 9 12 14 13 8 4 2 4 8 12 14 15
12 10 8 8 9 10 10 9 9 10 10 9 8 13 15 13 11 11 8 7 8 8 8 11 14 12 13 18 21 18 16 17 16 12 10 11 12 14 14 13 13 14 12 10 14 19 16 11 9 9 7 6 7 10 8 -0 -4 8 22 24 19 18 17 10 5 6 9 8 7 8 8 7 8 12 12 10 8 10 12 13 11 8 5 5 7 11 12
8 9 10 11 10 8 8 9 10 9 9 10 13 15 15 12 11 10 8 7 8 9 9 11 13 14 15 18 21 20 16 15 14 12 11 12 11 12 15 15 13 13 12 11 14 18 17 14 14 12 10 8 5 7 13 9 -5 -8 1 5 3 7 15 14 9 8 9 9 9 10 12 12 12 12 12 11 10 9 10 11 12 12 11 7 4 4 6
7 11 13 11 8 8 10 11 10 12 16 19 18 15 13 12 10 7 7 8 8 9 10 12 14 17 18 17 18 20 18 14 14 12 10 11 12 13 14 15 13 12 10 10 12 13 12 12 16 19 19 16 8 4 10 11 -2 -12 -9 -4 -5 -2 5 10 13 13 12 12 14 15 18 21 20 16 14 14 13 11 12 14 14 13 13 11 9 6 5
12 12 10 8 8 11 13 13 13 18 21 20 16 12 11 9 7 6 7 9 9 9 12 14 16 20 21 16 14 16 16 13 11 11 9 11 14 14 14 16 15 12 9 9 10 10 9 10 13 14 17 18 12 4 4 6 2 -4 -1 5 9 11 13 14 13 11 9 9 8 8 9 11 10 8 11 16 14 8 6 9 12 13 14 15 16 14 11
10 8 7 10 13 15 16 16 17 19 19 14 11 10 8 5 6 8 8 8 10 12 15 19 21 22 20 15 11 12 12 11 9 9 8 10 13 14 14 14 13 11 12 13 11 8 9 13 15 13 12 15 16 13 10 8 5 4 8 11 10 9 11 13 12 9 9 10 8 5 5 8 11 11 11 14 15 11 7 6 6 5 8 12 14 14 16
8 9 12 16 18 17 16 16 17 17 16 12 9 8 6 5 7 8 8 9 12 14 17 22 24 20 15 11 10 10 10 10 9 9 9 10 13 16 16 14 12 11 12 13 11 8 8 10 13 14 12 10 11 15 18 18 12 6 3 2 -0 -1 3 8 10 9 9 11 15 13 9 7 9 10 11 14 16 15 15 19 20 16 12 10 7 5 5
12 16 17 18 18 15 14 16 18 15 12 9 7 6 6 8 8 8 9 12 14 16 20 24 20 12 8 8 9 9 11 11 10 10 11 12 13 15 15 14 14 14 13 10 9 11 11 10 10 12 14 13 10 8 9 12 15 14 11 8 7 7 8 7 6 3 2 4 10 15 13 9 5 2 2 7 10 7 5 12 17 17 13 11 9 7 4
17 19 17 15 14 14 15 17 16 11 7 7 7 6 7 8 7 8 11 14 15 17 21 20 13 8 8 10 11 12 15 16 15 13 13 13 13 14 15 14 14 12 10 8 9 10 11 12 12 13 16 18 17 12 6 4 7 13 17 17 15 13 10 9 8 4 1 2 5 7 8 9 10 9 9 10 10 5 -0 -2 1 5 9 12 13 13 12
17 16 14 13 14 15 14 12 10 7 6 7 8 7 7 8 8 9 13 17 19 20 18 15 10 9 10 12 13 14 16 16 15 14 14 13 14 15 15 15 14 12 10 11 12 12 13 13 13 12 11 11 12 15 16 15 13 11 12 16 19 17 12 10 11 11 11 10 9 8 6 3 4 9 12 12 12 11 8 6 8 10 11 13 15 15 13
14 13 14 15 15 13 10 8 7 7 6 7 8 8 8 8 9 11 16 20 21 17 13 11 11 10 11 14 16 15 14 13 13 12 12 13 15 16 15 13 13 12 11 11 11 12 11 11 11 11 8 3 1 3 8 13 15 13 8 8 13 17 16 11 8 8 11 11 10 10 9 7 4 5 8 11 12 12 8 5 7 12 12 12 13 13 11
14 15 16 14 12 10 8 8 7 6 7 8 9 8 8 9 12 15 19 21 19 14 12 12 14 15 16 17 16 13 12 12 11 12 13 13 13 14 15 14 13 12 12 11 11 11 10 9 10 11 11 9 7 6 4 4 7 10 10 8 8 11 14 16 13 9 8 9 10 10 11 11 9 8 8 9 13 16 11 2 -1 4 6 6 9 12 13
16 16 13 11 9 8 7 6 6 8 9 9 8 9 10 12 14 18 22 21 17 14 14 15 17 18 17 14 11 10 11 12 12 11 11 11 11 13 14 14 13 12 11 11 11 10 9 8 9 11 13 15 15 13 9 5 4 7 10 12 10 8 8 12 16 15 13 12 11 10 10 11 11 11 10 8 10 15 16 10 5 3 2 1 5 16 24
14 12 10 9 8 6 6 7 10 10 9 8 9 11 12 12 15 22 24 20 14 13 14 15 15 14 12 11 10 10 11 11 10 10 10 11 14 16 15 13 12 12 11 11 11 10 10 12 13 14 15 16 16 15 13 12 10 9 9 10 11 12 11 9 11 13 15 14 13 12 12 11 10 10 11 9 7 8 9 9 8 11 13 12 11 13 15
10 9 8 7 6 6 7 9 10 9 8 9 12 13 12 13 18 25 24 17 12 11 12 12 11 10 10 10 11 11 10 10 11 12 13 14 15 15 14 12 12 12 12 11 11 11 11 12 13 13 13 13 13 13 14 13 12 12 11 9 9 11 12 12 11 11 11 11 12 12 12 12 11 12 13 13 10 6 4 2 -1 -0 5 11 15 14 11
9 7 6 6 6 7 9 9 9 10 11 13 14 13 13 15 21 23 19 12 10 10 10 9 10 11 11 11 11 10 11 11 12 12 14 14 13 12 12 11 11 11 11 10 9 9 9 9 10 10 11 11 11 12 13 12 11 11 12 11 10 10 10 12 13 14 14 14 13 11 12 13 13 12 13 15 15 10 7 6 4 -1 -5 -4 0 4 6
7 6 6 7 8 8 9 10 12 14 15 14 14 14 15 18 20 19 14 10 10 10 9 9 10 11 11 11 10 10 11 13 13 13 14 13 11 11 10 10 9 9 9 8 8 8 8 8 9 9 9 10 10 11 11 11 11 10 9 9 10 10 11 11 12 13 16 16 13 9 9 12 14 14 12 13 16 16 14 12 11 10 6 3 3 4 7
Height
5757 5754 5750 5746 5743 5739 5735 5731 5727 5723 5719 5715 5710 5707 5703 5698 5694 5691 5687 5683 5679 5675 5670 5667 5663 5659 5656 5652 5649 5647 5645 5643 5640 5637 5636 5634 5631 5627 5625 5622 5619 5616 5613 5610 5607 5604 5601 5598 5597 5595 5593 5592 5590 5588 5586 5584 5582 5581 5581 5581 5581 5583 5584 5585 5587 5589 5592 5595 5599 5602 5605 5608 5612 5616 5618 5621 5625 5628 5632 5636 5640 5643 5647 5651 5655 5657 5662
5756 5752 5749 5745 5741 5738 5734 5730 5726 5722 5719 5715 5710 5706 5702 5698 5694 5690 5686 5682 5678 5674 5670 5667 5663 5659 5655 5652 5648 5646 5643 5642 5640 5637 5635 5633 5631 5627 5625 5622 5620 5617 5614 5611 5609 5606 5603 5599 5597 5595 5594 5593 5592 5590 5588 5586 5584 5583 5583 5584 5584 5584 5585 5586 5588 5591 5594 5596 5598 5601 5604 5607 5611 5615 5618 5621 5624 5628 5632 5636 5638 5640 5644 5648 5651 5655 5662
5754 5751 5747 5743 5740 5736 5733 5729 5725 5721 5717 5713 5709 5705 5701 5697 5693 5689 5685 5682 5678 5674 5670 5666 5663 5659 5655 5652 5648 5646 5643 5640 5639 5638 5636 5633 5630 5627 5625 5622 5620 5617 5615 5612 5610 5607 5605 5601 5598 5596 5594 5594 5593 5591 5589 5588 5587 5586 5585 5586 5586 5585 5586 5586 5588 5591 5594 5596 5598 5599 5602 5605 5609 5613 5617 5621 5624 5628 5631 5634 5636 5639 5643 5646 5649 5655 5663
5753 5749 5746 5742 5738 5735 5731 5728 5724 5720 5716 5712 5708 5704 5701 5697 5693 5689 5685 5681 5678 5674 5670 5666 5662 5659 5656 5653 5649 5646 5643 5641 5639 5638 5636 5632 5629 5627 5625 5623 5620 5618 5616 5613 5611 5608 5606 5603 5600 5597 5595 5594 5593 5592 5591 5590 5589 5587 5587 5587 5587 5586 5586 5588 5590 5592 5594 5596 5597 5599 5602 5604 5608 5612 5615 5619 5623 5627 5629 5631 5635 5639 5642 5645 5650 5656 5661
5751 5748 5744 5741 5737 5733 5730 5726 5723 5719 5715 5711 5707 5703 5700 5697 5693 5689 5684 5681 5677 5673 5669 5665 5662 5659 5656 5653 5649 5646 5643 5642 5640 5638 5635 5632 5630 5627 5625 5623 5620 5618 5616 5613 5611 5609 5607 5604 5601 5598 5596 5595 5594 5593 5592 5591 5590 5589 5588 5588 5588 5587 5587 5589 5591 5593 5595 5596 5598 5601 5603 5605 5609 5611 5614 5617 5621 5624 5626 5629 5635 5638 5639 5643 5649 5654 5656
5749 5746 5742 5739 5736 5732 5728 5725 5721 5718 5714 5710 5706 5703 5699 5695 5692 5688 5684 5681 5677 5673 5669 5665 5661 5657 5654 5651 5648 5645 5642 5640 5639 5637 5634 5632 5630 5628 5625 5623 5620 5618 5616 5613 5611 5609 5607 5605 5602 5599 5597 5595 5594 5593 5594 5593 5592 5590 5590 5590 5589 5589 5589 5591 5592 5594 5596 5598 5600 5602 5604 5607 5609 5612 5615 5618 5621 5624 5626 5629 5632 5634 5637 5642 5647 5650 5651
5748 5744 5741 5737 5734 5731 5727 5723 5720 5717 5713 5709 5705 5702 5698 5693 5690 5687 5683 5680 5677 5673 5669 5665 5661 5657 5653 5650 5647 5645 5642 5638 5635 5634 5633 5631 5630 5628 5626 5624 5621 5618 5616 5613 5611 5609 5607 5605 5603 5601 5599 5597 5594 5594 5595 5595 5594 5593 5593 5593 5592 5591 5591 5593 5594 5596 5598 5600 5602 5603 5606 5609 5611 5613 5616 5620 5623 5627 5629 5631 5632 5633 5637 5641 5644 5646 5649
5746 5742 5739 5736 5732 5729 5725 5722 5719 5716 5712 5708 5705 5701 5697 5694 5690 5687 5683 5678 5675 5672 5668 5664 5660 5657 5653 5649 5646 5643 5641 5638 5634 5632 5632 5631 5629 5628 5626 5623 5620 5618 5616 5614 5611 5609 5607 5605 5604 5602 5600 5598 5596 5595 5595 5595 5595 5596 5596 5595 5595 5593 5593 5595 5596 5597 5599 5601 5603 5605 5607 5609 5611 5614 5618 5622 5625 5628 5629 5630 5632 5634 5637 5639 5642 5644 5647
5744 5740 5737 5734 5731 5727 5724 5721 5718 5714 5710 5706 5703 5700 5697 5694 5691 5687 5684 5679 5674 5671 5667 5663 5660 5657 5653 5650 5646 5642 5640 5638 5635 5631 5629 5628 5628 5627 5625 5623 5620 5618 5616 5614 5612 5609 5607 5605 5605 5603 5601 5600 5598 5596 5596 5596 5596 5597 5598 5597 5597 5596 5596 5597 5597 5598 5599 5601 5603 5605 5606 5608 5611 5615 5618 5621 5623 5625 5626 5628 5631 5634 5635 5637 5639 5642 5646
5741 5738 5735 5732 5729 5726 5723 5720 5716 5713 5709 5705 5701 5698 5695 5692 5689 5686 5683 5679 5675 5671 5667 5663 5659 5656 5653 5649 5646 5642 5639 5637 5636 5633 5629 5627 5627 5626 5624 5623 5621 5619 5617 5615 5612 5610 5607 5606 5605 5603 5602 5601 5600 5598 5597 5596 5596 5597 5598 5598 5598 5598 5597 5597 5598 5599 5600 5602 5603 5605 5607 5609 5612 5616 5617 5619 5622 5623 5625 5628 5631 5632 5634 5636 5638 5640 5644
5739 5736 5733 5730 5727 5725 5722 5718 5715 5712 5708 5704 5701 5698 5695 5692 5688 5685 5682 5679 5675 5671 5667 5664 5659 5655 5653 5649 5645 5641 5638 5636 5634 5633 5631 5629 5627 5626 5624 5623 5621 5618 5617 5615 5612 5610 5608 5607 5605 5604 5603 5602 5601 5599 5598 5597 5597 5597 5598 5599 5599 5600 5599 5598 5599 5600 5602 5603 5604 5606 5608 5611 5614 5616 5618 5620 5622 5623 5625 5628 5630 5632 5633 5636 5638 5640 5642
5737 5734 5731 5728 5726 5723 5720 5717 5713 5710 5707 5704 5700 5697 5695 5692 5689 5685 5682 5679 5675 5671 5667 5663 5660 5656 5653 5650 5646 5642 5638 5635 5633 5632 5630 5629 5627 5626 5624 5623 5621 5619 5618 5616 5613 5611 5609 5608 5607 5605 5604 5603 5602 5601 5600 5599 5598 5598 5599 5599 5600 5601 5601 5600 5600 5601 5602 5603 5605 5607 5609 5611 5615 5617 5618 5619 5620 5622 5625 5629 5630 5630 5632 5634 5636 5638 5641
5735 5732 5729 5726 5724 5721 5718 5715 5711 5708 5705 5703 5699 5696 5694 5691 5688 5685 5682 5679 5676 5672 5667 5663 5659 5656 5653 5650 5646 5642 5638 5634 5632 5631 5629 5627 5626 5625 5623 5622 5621 5619 5618 5616 5614 5612 5611 5609 5608 5607 5605 5604 5603 5602 5601 5600 5599 5599 5600 5600 5600 5602 5603 5603 5603 5603 5603 5604 5606 5608 5610 5612 5615 5616 5617 5619 5621 5622 5626 5628 5629 5629 5631 5634 5636 5638 5640
5732 5729 5727 5724 5721 5719 5716 5713 5710 5706 5703 5701 5698 5695 5692 5690 5687 5684 5681 5678 5675 5672 5667 5663 5659 5655 5652 5649 5646 5642 5638 5634 5631 5629 5628 5626 5625 5624 5623 5622 5620 5619 5617 5616 5614 5613 5612 5610 5609 5608 5607 5606 5604 5603 5602 5601 5601 5601 5600 5600 5601 5603 5604 5604 5605 5604 5605 5605 5606 5608 5610 5612 5614 5615 5616 5619 5621 5622 5624 5627 5628 5630 5632 5635 5638 5639 5640
5729 5727 5724 5722 5719 5716 5714 5711 5708 5705 5701 5699 5697 5694 5691 5688 5686 5683 5680 5677 5675 5672 5668 5664 5660 5656 5653 5650 5646 5643 5640 5636 5632 5629 5627 5625 5625 5623 5622 5621 5620 5619 5617 5615 5614 5613 5612 5610 5609 5608 5607 5606 5606 5605 5604 5603 5602 5602 5601 5601 5602 5604 5604 5604 5605 5605 5606 5606 5607 5609 5610 5611 5611 5612 5614 5617 5619 5620 5624 5627 5628 5630 5633 5635 5638 5640 5641
5727 5724 5722 5719 5717 5714 5711 5709 5707 5703 5699 5697 5695 5693 5690 5687 5684 5681 5678 5675 5673 5671 5667 5663 5660 5656 5653 5650 5647 5643 5640 5637 5633 5630 5627 5625 5623 5622 5621 5621 5620 5619 5617 5616 5614 5613 5612 5610 5609 5609 5608 5607 5606 5606 5605 5604 5604 5603 5602 5602 5604 5605 5605 5605 5606 5606 5607 5607 5608 5608 5608 5609 5610 5611 5613 5615 5617 5619 5623 5627 5628 5630 5633 5635 5636 5638 5641
5724 5722 5719 5717 5714 5712 5709 5707 5705 5702 5698 5694 5693 5691 5689 5686 5683 5681 5677 5674 5671 5669 5666 5662 5659 5656 5652 5649 5646 5643 5640 5636 5634 5632 5629 5627 5625 5623 5622 5621 5620 5619 5618 5616 5615 5614 5612 5611 5610 5609 5609 5608 5607 5607 5606 5606 5606 5605 5604 5604 5605 5606 5606 5606 5606 5607 5608 5608 5607 5607 5607 5609 5610 5611 5612 5614 5615 5617 5621 5625 5627 5630 5633 5634 5636 5638 5640
5722 5720 5717 5715 5712 5709 5706 5704 5702 5700 5697 5693 5690 5689 5687 5685 5682 5679 5677 5673 5670 5668 5666 5662 5658 5655 5652 5649 5645 5643 5640 5637 5633 5631 5629 5627 5626 5625 5623 5621 5620 5619 5618 5617 5615 5614 5613 5612 5611 5610 5610 5609 5608 5607 5607 5607 5607 5606 5606 5605 5605 5606 5606 5606 5607 5607 5607 5608 5607 5607 5608 5609 5609 5611 5612 5613 5615 5616 5619 5622 5626 5629 5631 5633 5635 5638 5640
5720 5717 5715 5712 5710 5707 5704 5702 5700 5698 5695 5692 5688 5687 5685 5683 5681 5678 5676 5672 5668 5666 5665 5662 5658 5654 5652 5649 5645 5642 5639 5637 5634 5631 5629 5626 5624 5623 5623 5622 5620 5619 5618 5617 5616 5615 5614 5613 5612 5611 5611 5610 5609 5609 5608 5608 5608 5607 5607 5607 5606 5606 5606 5607 5607 5607 5607 5607 5608 5608 5608 5608 5609 5611 5612 5613 5614 5616 5618 5620 5623 5626 5629 5631 5633 5636 5639
5717 5715 5712 5710 5707 5704 5701 5699 5697 5695 5693 5690 5687 5684 5683 5681 5679 5677 5675 5672 5668 5665 5663 5661 5657 5653 5650 5648 5645 5642 5639 5636 5633 5631 5629 5627 5624 5622 5621 5621 5619 5618 5617 5616 5615 5615 5614 5613 5612 5611 5611 5611 5610 5609 5609 5609 5609 5609 5608 5608 5608 5608 5607 5607 5607 5607 5607 5608 5608 5608 5608 5608 5609 5610 5611 5612 5613 5614 5616 5618 5621 5624 5627 5629 5631 5634 5637
5714 5712 5710 5707 5704 5701 5699 5696 5695 5693 5691 5689 5686 5682 5681 5679 5677 5675 5673 5671 5667 5664 5661 5660 5657 5653 5649 5647 5645 5642 5638 5635 5633 5630 5628 5627 5625 5622 5621 5621 5620 5619 5617 5616 5616 5615 5614 5614 5613 5612 5611 5611 5611 5610 5610 5610 5610 5610 5609 5608 5609 5609 5608 5608 5607 5607 5608 5608 5608 5607 5607 5607 5608 5608 5609 5611 5613 5613 5615 5617 5619 5623 5625 5627 5629 5632 5635
5711 5709 5707 5705 5702 5699 5696 5694 5692 5690 5689 5687 5684 5681 5679 5677 5675 5673 5671 5669 5665 5661 5659 5658 5656 5652 5648 5646 5644 5641 5637 5634 5632 5630 5627 5626 5624 5623 5621 5621 5620 5619 5618 5616 5616 5615 5614 5614 5613 5612 5612 5612 5611 5611 5611 5611 5611 5610 5610 5609 5609 5609 5609 5608 5608 5608 5608 5608 5608 5608 5607 5606 5607 5607 5608 5610 5612 5614 5615 5617 5619 5621 5624 5626 5628 5630 5632
5708 5706 5704 5702 5699 5696 5694 5692 5690 5688 5686 5685 5682 5680 5677 5675 5673 5671 5669 5667 5664 5659 5655 5654 5653 5651 5647 5643 5641 5639 5636 5633 5631 5628 5626 5625 5624 5622 5620 5619 5619 5618 5617 5616 5615 5615 5614 5614 5613 5613 5612 5612 5612 5612 5612 5612 5611 5611 5611 5610 5609 5609 5609 5609 5608 5608 5608 5608 5608 5608 5607 5606 5606 5607 5607 5608 5610 5613 5614 5616 5618 5621 5623 5624 5626 5628 5630
5704 5702 5700 5698 5696 5694 5691 5689 5687 5685 5683 5682 5680 5678 5675 5673 5671 5669 5667 5666 5663 5659 5654 5650 5649 5648 5646 5642 5639 5637 5635 5632 5630 5627 5626 5624 5623 5622 5620 5618 5617 5617 5617 5616 5615 5615 5614 5614 5613 5613 5612 5612 5612 5612 5612 5612 5612 5611 5611 5610 5610 5609 5609 5609 5609 5609 5608 5608 5608 5608 5608 5606 5606 5607 5608 5608 5609 5610 5612 5615 5617 5619 5620 5622 5623 5625 5627
5701 5699 5697 5695 5693 5691 5689 5686 5684 5682 5680 5678 5676 5675 5673 5671 5668 5667 5665 5663 5661 5659 5654 5649 5646 5645 5644 5642 5638 5636 5633 5631 5629 5627 5625 5623 5621 5621 5620 5618 5617 5616 5616 5615 5615 5614 5614 5613 5613 5613 5613 5612 5613 5612 5612 5612 5612 5612 5612 5611 5610 5610 5610 5609 5609 5609 5609 5608 5608 5608 5607 5607 5607 5607 5607 5607 5608 5608 5610 5612 5615 5616 5618 5620 5622 5624 5625
5697 5695 5693 5691 5689 5688 5685 5683 5681 5679 5677 5675 5673 5671 5670 5668 5666 5664 5662 5660 5658 5657 5653 5648 5644 5643 5642 5639 5637 5634 5632 5630 5628 5626 5624 5622 5620 5619 5618 5617 5616 5615 5615 5614 5614 5613 5613 5613 5613 5613 5613 5613 5612 5612 5612 5612 5612 5612 5612 5611 5611 5610 5610 5610 5609 5609 5609 5608 5608 5608 5607 5607 5607 5607 5607 5607 5608 5608 5610 5611 5613 5615 5616 5618 5620 5621 5623
5693 5691 5689 5688 5686 5684 5682 5680 5677 5675 5674 5672 5670 5668 5667 5665 5663 5661 5659 5657 5655 5654 5651 5646 5642 5640 5639 5637 5634 5632 5630 5628 5626 5625 5623 5621 5619 5617 5616 5616 5615 5614 5614 5613 5613 5612 5612 5612 5612 5613 5612 5612 5612 5612 5612 5612 5611 5611 5611 5611 5610 5610 5610 5609 5609 5609 5608 5608 5608 5608 5607 5607 5607 5608 5608 5608 5608 5608 5609 5610 5612 5613 5614 5615 5617 5618 5620
5689 5687 5686 5684 5682 5681 5679 5676 5674 5672 5671 5669 5667 5665 5664 5662 5660 5658 5656 5654 5652 5651 5648 5645 5641 5638 5637 5635 5632 5630 5628 5626 5624 5622 5621 5619 5618 5616 5614 5614 5614 5613 5613 5612 5612 5612 5611 5611 5612 5612 5612 5612 5612 5612 5611 5611 5611 5611 5611 5610 5610 5609 5609 5609 5608 5608 5608 5608 5608 5607 5607 5607 5607 5607 5607 5607 5607 5608 5609 5610 5611 5612 5612 5614 5615 5616 5617
5685 5683 5682 5680 5679 5677 5675 5673 5670 5668 5667 5666 5664 5661 5660 5659 5657 5654 5652 5651 5649 5647 5645 5643 5639 5636 5634 5633 5630 5627 5626 5624 5622 5620 5619 5617 5616 5615 5613 5612 5612 5612 5611 5611 5610 5610 5610 5610 5611 5612 5612 5612 5611 5611 5610 5610 5610 5610 5610 5609 5609 5609 5609 5608 5607 5607 5607 5607 5607 5607 5607 5607 5607 5607 5606 5606 5606 5607 5608 5609 5611 5611 5612 5613 5614 5614 5615
5681 5679 5678 5676 5674 5672 5671 5669 5667 5665 5664 5663 5661 5658 5657 5655 5653 5651 5649 5647 5645 5644 5642 5640 5637 5634 5631 5630 5628 5625 5623 5622 5620 5618 5617 5616 5615 5614 5612 5611 5611 5610 5610 5609 5609 5608 5609 5609 5609 5610 5611 5610 5610 5610 5609 5609 5608 5608 5609 5609 5609 5608 5608 5607 5607 5607 5607 5607 5606 5606 5607 5607 5607 5607 5606 5606 5606 5607 5608 5609 5610 5611 5611 5612 5612 5613 5614
5676 5675 5673 5672 5670 5668 5666 5665 5663 5661 5660 5659 5657 5655 5653 5652 5650 5648 5646 5644 5642 5640 5639 5637 5634 5631 5628 5627 5625 5622 5620 5619 5617 5616 5615 5614 5613 5612 5611 5610 5610 5609 5608 5608 5607 5607 5607 5607 5607 5608 5609 5608 5608 5608 5607 5607 5607 5607 5608 5608 5608 5607 5607 5607 5607 5607 5607 5606 5606 5606 5606 5607 5607 5607 5606 5606 5607 5607 5607 5608 5609 5610 5610 5611 5611 5611 5612
5672 5670 5669 5667 5666 5664 5662 5660 5659 5658 5656 5654 5653 5651 5650 5648 5646 5644 5643 5641 5639 5637 5635 5633 5631 5628 5625 5623 5622 5620 5618 5616 5615 5613 5613 5612 5611 5610 5609 5609 5608 5608 5607 5606 5605 5605 5605 5605 5605 5606 5606 5606 5605 5605 5605 5606 5606 5607 5608 5607 5607 5606 5605 5605 5606 5606 5607 5606 5605 5605 5606 5606 5606 5607 5606 5606 5606 5607 5607 5608 5609 5609 5610 5610 5610 5610 5610
5668 5666 5664 5663 5662 5660 5659 5657 5655 5654 5652 5650 5649 5647 5646 5644 5642 5641 5639 5638 5636 5634 5632 5630 5628 5626 5622 5620 5619 5618 5616 5614 5612 5611 5611 5610 5609 5608 5607 5606 5606 5605 5605 5604 5603 5603 5604 5603 5603 5604 5604 5603 5603 5603 5604 5605 5607 5608 5608 5607 5606 5605 5604 5604 5604 5605 5606 5605 5604 5603 5605 5605 5605 5606 5606 5606 5606 5606 5607 5608 5608 5608 5608 5608 5608 5608 5608
5663 5662 5660 5659 5658 5656 5655 5653 5652 5650 5648 5647 5645 5643 5642 5640 5639 5637 5636 5634 5633 5631 5629 5627 5625 5622 5620 5617 5616 5615 5613 5612 5610 5609 5608 5607 5607 5606 5605 5604 5603 5603 5603 5602 5602 5602 5602 5602 5601 5602 5602 5601 5601 5602 5604 5605 5607 5607 5606 5605 5604 5603 5602 5602 5602 5602 5604 5604 5603 5602 5603 5604 5605 5604 5605 5605 5606 5606 5606 5607 5607 5607 5607 5606 5606 5606 5606
5659 5657 5656 5655 5653 5652 5651 5649 5648 5646 5644 5642 5641 5639 5638 5637 5636 5634 5632 5631 5629 5627 5625 5624 5622 5620 5617 5614 5612 5611 5610 5609 5608 5607 5606 5604 5604 5604 5603 5602 5602 5601 5601 5600 5600 5600 5600 5600 5599 5599 5600 5600 5600 5602 5603 5604 5605 5605 5604 5602 5602 5602 5601 5601 5600 5600 5602 5603 5603 5602 5602 5603 5604 5604 5604 5604 5604 5605 5605 5606 5606 5606 5606 5605 5605 5605 5605
5654 5653 5651 5650 5649 5648 5646 5645 5643 5642 5640 5638 5636 5635 5634 5633 5632 5630 5628 5627 5625 5624 5622 5620 5618 5616 5614 5612 5610 5608 5607 5606 5606 5605 5603 5602 5602 5601 5600 5600 5600 5600 5599 5598 5597 5598 5598 5597 5596 5596 5598 5598 5599 5600 5601 5602 5602 5602 5601 5600 5599 5599 5599 5598 5598 5598 5599 5601 5602 5602 5601 5601 5602 5603 5603 5603 5603 5603 5603 5604 5605 5605 5605 5605 5604 5604 5604
5649 5648 5646 5645 5644 5643 5642 5641 5639 5637 5636 5634 5632 5631 5630 5629 5628 5626 5625 5623 5622 5621 5619 5617 5615 5613 5611 5609 5608 5606 5605 5604 5603 5602 5601 5600 5600 5599 5598 5597 5597 5597 5597 5596 5595 5595 5595 5594 5593 5594 5595 5596 5597 5598 5600 5600 5600 5599 5598 5597 5597 5597 5596 5596 5596 5596 5597 5598 5599 5599 5599 5599 5600 5601 5602 5602 5601 5601 5601 5602 5603 5603 5603 5603 5603 5603 5603
5644 5643 5642 5641 5640 5638 5637 5636 5635 5633 5631 5630 5629 5627 5626 5625 5624 5622 5621 5620 5618 5617 5615 5613 5611 5609 5608 5606 5605 5604 5602 5601 5600 5600 5599 5598 5597 5596 5596 5596 5595 5594 5594 5593 5593 5593 5592 5591 5591 5592 5593 5594 5595 5597 5598 5598 5598 5597 5595 5595 5595 5595 5595 5594 5594 5594 5594 5595 5596 5597 5597 5598 5598 5598 5599 5599 5599 5599 5599 5600 5601 5601 5601 5601 5601 5602 5602
5639 5638 5638 5637 5635 5634 5633 5631 5630 5628 5627 5626 5625 5624 5623 5622 5620 5619 5617 5616 5615 5613 5612 5610 5608 5606 5604 5603 5602 5601 5600 5599 5597 5597 5597 5596 5595 5594 5593 5593 5593 5592 5591 5591 5591 5590 5589 5589 5590 5590 5591 5592 5594 5595 5595 5595 5594 5593 5591 5591 5592 5593 5593 5593 5593 5592 5592 5593 5593 5594 5595 5595 5595 5596 5596 5597 5597 5597 5597 5598 5599 5599 5599 5599 5599 5600 5600
5634 5634 5633 5632 5630 5629 5628 5626 5625 5624 5623 5622 5621 5620 5619 5618 5617 5615 5614 5612 5611 5610 5608 5606 5604 5603 5601 5599 5598 5598 5598 5596 5595 5594 5594 5594 5593 5592 5591 5591 5591 5590 5588 5588 5588 5587 5586 5587 5588 5588 5589 5590 5592 5592 5591 5591 5591 5590 5589 5589 5590 5591 5591 5592 5591 5590 5590 5590 5591 5591 5592 5592 5593 5593 5594 5594 5595 5595 5596 5596 5597 5597 5597 5597 5597 5597 5598
5630 5629 5628 5626 5625 5624 5623 5621 5620 5620 5619 5618 5617 5616 5615 5614 5613 5612 5610 5609 5607 5606 5604 5602 5601 5600 5598 5597 5595 5594 5594 5594 5593 5592 5591 5591 5591 5589 5588 5588 5588 5587 5586 5586 5585 5584 5584 5585 5586 5586 5586 5587 5588 5588 5588 5588 5587 5587 5587 5587 5587 5588 5589 5589 5589 5589 5588 5588 5588 5589 5589 5590 5590 5591 5591 5591 5592 5593 5593 5594 5595 5595 5595 5595 5595 5595 5595
5625 5624 5622 5621 5620 5619 5618 5617 5617 5616 5615 5614 5613 5612 5611 5610 5609 5608 5607 5605 5604 5602 5600 5599 5598 5596 5595 5594 5593 5592 5591 5591 5590 5589 5588 5588 5587 5587 5586 5585 5585 5584 5584 5583 5582 5581 5581 5582 5583 5583 5584 5584 5584 5584 5584 5584 5584 5584 5584 5584 5584 5585 5586 5586 5587 5587 5587 5586 5586 5586 5587 5587 5587 5588 5589 5589 5589 5590 5591 5592 5592 5592 5592 5593 5593 5592 5592
5619 5618 5617 5616 5615 5615 5614 5613 5613 5612 5611 5610 5609 5608 5607 5606 5605 5604 5603 5601 5600 5598 5597 5596 5595 5593 5592 5591 5590 5589 5589 5588 5587 5586 5586 5585 5584 5584 5583 5582 5582 5582 5581 5580 5579 5579 5579 5579 5580 5580 5581 5581 5580 5580 5580 5580 5580 5580 5580 5580 5580 5581 5582 5583 5583 5584 5584 5584 5584 5584 5584 5584 5585 5585 5586 5587 5587 5587 5587 5587 5587 5588 5589 5590 5590 5590 5590
5614 5613 5612 5611 5611 5610 5609 5609 5609 5608 5607 5606 5606 5605 5603 5602 5601 5600 5599 5597 5596 5594 5594 5593 5591 5590 5589 5588 5587 5586 5585 5584 5584 5583 5582 5582 5581 5580 5580 5579 5579 5579 5578 5577 5576 5576 5576 5576 5577 5577 5577 5577 5577 5577 5577 5576 5576 5576 5576 5576 5576 5577 5578 5579 5579 5580 5580 5581 5581 5581 5581 5581 5582 5582 5583 5584 5584 5584 5584 5584 5583 5584 5585 5587 5587 5587 5587
5609 5608 5608 5607 5606 5606 5605 5605 5605 5604 5603 5602 5602 5600 5599 5598 5597 5596 5595 5594 5592 5590 5589 5588 5587 5586 5585 5585 5584 5582 5581 5581 5580 5580 5579 5579 5578 5577 5577 5576 5576 5575 5574 5574 5574 5574 5574 5574 5574 5573 5573 5573 5573 5573 5572 5572 5572 5572 5572 5572 5572 5573 5574 5574 5575 5575 5576 5576 5577 5577 5578 5578 5579 5579 5579 5580 5580 5580 5581 5581 5580 5580 5582 5583 5583 5584 5584
5604 5603 5603 5603 5602 5602 5602 5601 5600 5600 5599 5599 5597 5596 5594 5593 5592 5591 5591 5590 5589 5587 5585 5583 5583 5582 5582 5581 5580 5579 5578 5578 5577 5576 5576 5576 5575 5574 5573 5573 5572 5572 5572 5571 5571 5571 5570 5570 5570 5570 5570 5569 5569 5569 5568 5568 5568 5568 5568 5568 5568 5569 5569 5570 5571 5571 5571 5572 5573 5573 5574 5574 5575 5575 5575 5575 5575 5576 5576 5577 5577 5577 5578 5579 5580 5580 5581
5599 5599 5599 5599 5598 5598 5598 5597 5596 5595 5595 5594 5593 5592 5590 5589 5588 5587 5586 5586 5584 5583 5581 5579 5579 5579 5578 5578 5577 5576 5575 5575 5574 5573 5573 5572 5572 5571 5570 5570 5569 5569 5569 5568 5568 5567 5567 5566 5566 5566 5566 5566 5565 5565 5565 5564 5564 5564 5565 5565 5565 5565 5566 5566 5566 5567 5567 5568 5568 5569 5570 5570 5570 5571 5571 5571 5571 5572 5572 5573 5573 5574 5575 5576 5576 5576 5577
5595 5595 5595 5595 5594 5594 5593 5593 5592 5591 5591 5590 5589 5588 5586 5585 5584 5583 5582 5581 5580 5578 5577 5576 5576 5575 5575 5574 5573 5573 5572 5572 5571 5570 5570 5569 5569 5568 5567 5567 5566 5566 5566 5565 5565 5564 5564 5563 5563 5563 5563 5562 5562 5562 5561 5561 5561 5561 5561 5561 5561 5562 5562 5562 5563 5563 5563 5563 5564 5564 5565 5566 5566 5566 5566 5567 5567 5568 5568 5569 5569 5570 5571 5571 5571 5571 5572
5591 5591 5591 5591 5590 5590 5589 5589 5588 5587 5586 5585 5584 5583 5582 5581 5580 5580 5579 5578 5575 5574 5573 5573 5573 5572 5572 5571 5570 5569 5569 5569 5568 5567 5567 5566 5566 5565 5565 5564 5563 5563 5562 5562 5561 5561 5560 5560 5559 5559 5559 5559 5558 5558 5558 5557 5557 5557 5556 5557 5557 5557 5558 5558 5559 5559 5559 5559 5559 5559 5560 5561 5561 5562 5562 5563 5563 5564 5564 5565 5565 5566 5566 5565 5565 5566 5568
5588 5587 5587 5587 5586 5586 5585 5585 5584 5583 5582 5581 5580 5579 5578 5577 5576 5576 5576 5574 5572 5571 5571 5571 5570 5570 5569 5568 5567 5566 5566 5565 5565 5564 5564 5563 5563 5562 5561 5561 5560 5560 5559 5558 5557 5557 5556 5556 5555 5555 5555 5555 5554 5554 5554 5553 5553 5553 5552 5552 5552 5553 5553 5553 5554 5554 5554 5554 5554 5554 5555 5556 5557 5557 5558 5558 5559 5559 5560 5560 5561 5561 5561 5560 5561 5562 5563
5584 5583 5583 5583 5582 5582 5581 5581 5579 5578 5577 5577 5576 5575 5574 5573 5572 5572 5571 5570 5569 5568 5568 5567 5567 5566 5566 5565 5564 5564 5563 5562 5561 5561 5560 5560 5559 5558 5558 5557 5557 5556 5555 5554 5553 5552 5552 5552 5551 5551 5550 5550 5550 5549 5549 5549 5548 5548 5548 5548 5548 5548 5548 5548 5549 5549 5550 5550 5550 5550 5550 5551 5552 5552 5553 5554 5554 5554 5555 5556 5556 5557 5556 5556 5557 5558 5558
5579 5579 5579 5578 5578 5577 5577 5576 5575 5574 5573 5572 5572 5571 5570 5569 5569 5569 5568 5567 5566 5566 5565 5564 5564 5563 5562 5562 5561 5560 5560 5559 5558 5558 5557 5556 5556 5555 5554 5553 5553 5552 5551 5551 5550 5549 5548 5547 5547 5546 5546 5545 5545 5545 5544 5544 5543 5543 5543 5543 5543 5542 5542 5543 5543 5544 5544 5545 5545 5545 5545 5546 5547 5548 5549 5549 5549 5549 5550 5551 5551 5552 5552 5552 5552 5553 5554